Time,TemperatureF,DewpointF,PressureIn,WindDirection,WindDirectionDegrees,WindSpeedMPH,WindSpeedGustMPH,Humidity,HourlyPrecipIn,Conditions,Clouds,dailyrainin,SoftwareType,DateUTC
2013-02-15 00:01:00,49.0,43.0,30.24,NW,323,5.0,-999.0,81,-99.99,,,-99.99,,2013-02-15 08:01:00,
2013-02-15 00:11:00,49.0,43.0,30.24,NW,323,5.0,-999.0,81,-99.99,,,-99.99,,2013-02-15 08:11:00,
2013-02-15 00:21:00,48.0,44.0,30.24,NW,323,4.0,-999.0,87,-99.99,,,-99.99,,2013-02-15 08:21:00,
2013-02-15 00:31:00,47.0,43.0,30.24,NW,326,3.0,-999.0,85,-99.99,,,-99.99,,2013-02-15 08:31:00,
2013-02-15 00:41:00,47.0,43.0,30.24,NW,326,3.0,-999.0,85,-99.99,,,-99.99,,2013-02-15 08:41:00,
2013-02-15 00:52:00,47.0,43.0,30.24,NW,325,3.0,-999.0,86,-99.99,,,-99.99,,2013-02-15 08:52:00,
2013-02-15 01:01:00,47.0,43.0,30.25,NW,325,3.0,-999.0,86,-99.99,,,-99.99,,2013-02-15 09:01:00,
2013-02-15 01:12:00,47.0,43.0,30.25,NW,325,3.0,-999.0,86,-99.99,,,-99.99,,2013-02-15 09:12:00,
2013-02-15 01:21:00,46.0,42.0,30.25,NW,325,3.0,-999.0,87,-99.99,,,-99.99,,2013-02-15 09:21:00,
2013-02-15 01:31:00,46.0,43.0,30.25,NW,325,3.0,-999.0,88,-99.99,,,-99.99,,2013-02-15 09:31:00,
2013-02-15 01:41:00,46.0,43.0,30.25,NW,325,3.0,-999.0,88,-99.99,,,-99.99,,2013-02-15 09:41:00,
2013-02-15 01:51:00,46.0,43.0,30.25,NW,326,3.0,-999.0,88,-99.99,,,-99.99,,2013-02-15 09:51:00,
2013-02-15 02:01:00,46.0,43.0,30.26,NW,326,2.0,-999.0,88,-99.99,,,-99.99,,2013-02-15 10:01:00,
2013-02-15 02:11:00,46.0,43.0,30.26,NW,326,2.0,-999.0,88,-99.99,,,-99.99,,2013-02-15 10:11:00,
2013-02-15 02:21:00,46.0,43.0,30.26,NW,326,1.0,-999.0,88,-99.99,,,-99.99,,2013-02-15 10:21:00,
2013-02-15 02:31:00,45.0,42.0,30.26,NW,326,2.0,-999.0,89,-99.99,,,-99.99,,2013-02-15 10:31:00,
2013-02-15 02:41:00,45.0,42.0,30.26,NW,326,2.0,-999.0,89,-99.99,,,-99.99,,2013-02-15 10:41:00,
2013-02-15 02:52:00,44.0,41.0,30.26,NW,326,3.0,-999.0,89,-99.99,,,-99.99,,2013-02-15 10:52:00,
2013-02-15 03:01:00,44.0,41.0,30.26,NW,326,1.0,-999.0,90,-99.99,,,-99.99,,2013-02-15 11:01:00,
2013-02-15 03:11:00,44.0,41.0,30.26,NW,326,1.0,-999.0,90,-99.99,,,-99.99,,2013-02-15 11:11:00,
2013-02-15 03:22:00,44.0,41.0,30.25,NW,326,2.0,-999.0,90,-99.99,,,-99.99,,2013-02-15 11:22:00,
2013-02-15 03:31:00,44.0,41.0,30.25,NW,326,2.0,-999.0,90,-99.99,,,-99.99,,2013-02-15 11:31:00,
2013-02-15 03:42:00,44.0,41.0,30.25,NW,326,2.0,-999.0,90,-99.99,,,-99.99,,2013-02-15 11:42:00,
2013-02-15 03:52:00,44.0,42.0,30.25,NW,326,0.0,-999.0,91,-99.99,,,-99.99,,2013-02-15 11:52:00,
2013-02-15 04:01:00,43.0,41.0,30.26,NW,326,0.0,-999.0,91,-99.99,,,-99.99,,2013-02-15 12:01:00,
2013-02-15 04:11:00,43.0,41.0,30.26,NW,326,0.0,-999.0,91,-99.99,,,-99.99,,2013-02-15 12:11:00,
2013-02-15 04:21:00,43.0,41.0,30.26,NW,326,0.0,-999.0,91,-99.99,,,-99.99,,2013-02-15 12:21:00,
2013-02-15 04:31:00,43.0,41.0,30.26,NW,326,0.0,-999.0,91,-99.99,,,-99.99,,2013-02-15 12:31:00,
2013-02-15 04:42:00,43.0,41.0,30.26,NW,326,0.0,-999.0,91,-99.99,,,-99.99,,2013-02-15 12:42:00,
2013-02-15 04:52:00,44.0,42.0,30.26,NW,326,0.0,-999.0,92,-99.99,,,-99.99,,2013-02-15 12:52:00,
2013-02-15 05:02:00,44.0,42.0,30.26,NW,326,0.0,-999.0,92,-99.99,,,-99.99,,2013-02-15 13:02:00,
2013-02-15 05:11:00,44.0,42.0,30.26,NW,326,0.0,-999.0,92,-99.99,,,-99.99,,2013-02-15 13:11:00,
2013-02-15 05:21:00,45.0,43.0,30.26,NW,326,0.0,-999.0,92,-99.99,,,-99.99,,2013-02-15 13:21:00,
2013-02-15 05:31:00,44.0,41.0,30.26,NW,326,2.0,-999.0,90,-99.99,,,-99.99,,2013-02-15 13:31:00,
2013-02-15 05:41:00,44.0,41.0,30.26,NW,326,2.0,-999.0,90,-99.99,,,-99.99,,2013-02-15 13:41:00,
2013-02-15 05:52:00,44.0,42.0,30.26,NW,326,1.0,-999.0,93,-99.99,,,-99.99,,2013-02-15 13:52:00,
2013-02-15 06:01:00,43.0,41.0,30.26,NW,326,2.0,-999.0,92,-99.99,,,-99.99,,2013-02-15 14:01:00,
2013-02-15 06:11:00,43.0,41.0,30.26,NW,326,2.0,-999.0,92,-99.99,,,-99.99,,2013-02-15 14:11:00,
2013-02-15 06:21:00,44.0,42.0,30.26,NW,326,1.0,-999.0,91,-99.99,,,-99.99,,2013-02-15 14:21:00,
2013-02-15 06:32:00,43.0,41.0,30.27,NW,326,2.0,-999.0,92,-99.99,,,-99.99,,2013-02-15 14:32:00,
2013-02-15 06:41:00,43.0,41.0,30.27,NW,326,2.0,-999.0,92,-99.99,,,-99.99,,2013-02-15 14:41:00,
2013-02-15 06:52:00,42.0,40.0,30.27,NW,326,2.0,-999.0,92,-99.99,,,-99.99,,2013-02-15 14:52:00,
2013-02-15 07:01:00,41.0,39.0,30.27,NW,326,1.0,-999.0,93,-99.99,,,-99.99,,2013-02-15 15:01:00,
2013-02-15 07:11:00,41.0,39.0,30.27,NW,326,1.0,-999.0,93,-99.99,,,-99.99,,2013-02-15 15:11:00,
2013-02-15 07:21:00,41.0,39.0,30.27,NW,326,0.0,-999.0,92,-99.99,,,-99.99,,2013-02-15 15:21:00,
2013-02-15 07:32:00,41.0,39.0,30.28,NW,326,1.0,-999.0,93,-99.99,,,-99.99,,2013-02-15 15:32:00,
2013-02-15 07:41:00,41.0,39.0,30.28,NW,326,1.0,-999.0,93,-99.99,,,-99.99,,2013-02-15 15:41:00,
2013-02-15 07:52:00,41.0,39.0,30.28,NW,326,1.0,-999.0,93,-99.99,,,-99.99,,2013-02-15 15:52:00,
2013-02-15 08:01:00,42.0,40.0,30.29,NW,326,1.0,-999.0,94,-99.99,,,-99.99,,2013-02-15 16:01:00,
2013-02-15 08:11:00,42.0,40.0,30.29,NW,326,1.0,-999.0,94,-99.99,,,-99.99,,2013-02-15 16:11:00,
2013-02-15 08:22:00,43.0,42.0,30.29,NW,326,1.0,-999.0,95,-99.99,,,-99.99,,2013-02-15 16:22:00,
2013-02-15 08:31:00,44.0,43.0,30.29,NW,326,1.0,-999.0,95,-99.99,,,-99.99,,2013-02-15 16:31:00,
2013-02-15 08:42:00,44.0,43.0,30.29,NW,326,1.0,-999.0,95,-99.99,,,-99.99,,2013-02-15 16:42:00,
2013-02-15 08:52:00,47.0,45.0,30.30,NW,326,2.0,-999.0,92,-99.99,,,-99.99,,2013-02-15 16:52:00,
2013-02-15 09:01:00,49.0,46.0,30.30,NW,326,2.0,-999.0,89,-99.99,,,-99.99,,2013-02-15 17:01:00,
2013-02-15 09:11:00,50.0,46.0,30.30,NW,326,0.0,-999.0,87,-99.99,,,-99.99,,2013-02-15 17:11:00,
2013-02-15 09:21:00,50.0,46.0,30.30,NW,326,0.0,-999.0,87,-99.99,,,-99.99,,2013-02-15 17:21:00,
2013-02-15 09:31:00,52.0,46.0,30.30,NW,326,1.0,-999.0,81,-99.99,,,-99.99,,2013-02-15 17:31:00,
2013-02-15 09:41:00,52.0,46.0,30.30,NW,326,1.0,-999.0,81,-99.99,,,-99.99,,2013-02-15 17:41:00,
2013-02-15 09:52:00,54.0,47.0,30.30,NW,326,2.0,-999.0,78,-99.99,,,-99.99,,2013-02-15 17:52:00,
2013-02-15 10:01:00,54.0,47.0,30.30,NW,326,2.0,-999.0,78,-99.99,,,-99.99,,2013-02-15 18:01:00,
2013-02-15 10:11:00,54.0,47.0,30.30,NW,326,2.0,-999.0,78,-99.99,,,-99.99,,2013-02-15 18:11:00,
2013-02-15 10:21:00,56.0,47.0,30.30,NW,326,1.0,-999.0,72,-99.99,,,-99.99,,2013-02-15 18:21:00,
2013-02-15 10:32:00,57.0,47.0,30.30,NW,326,1.0,-999.0,69,-99.99,,,-99.99,,2013-02-15 18:32:00,
2013-02-15 10:42:00,57.0,47.0,30.30,NW,326,1.0,-999.0,69,-99.99,,,-99.99,,2013-02-15 18:42:00,
2013-02-15 10:52:00,58.0,47.0,30.31,NW,326,1.0,-999.0,66,-99.99,,,-99.99,,2013-02-15 18:52:00,
2013-02-15 11:01:00,59.0,47.0,30.31,NW,326,1.0,-999.0,64,-99.99,,,-99.99,,2013-02-15 19:01:00,
2013-02-15 11:11:00,59.0,47.0,30.31,NW,326,1.0,-999.0,64,-99.99,,,-99.99,,2013-02-15 19:11:00,
2013-02-15 11:21:00,60.0,47.0,30.31,NNW,327,2.0,-999.0,61,-99.99,,,-99.99,,2013-02-15 19:21:00,
2013-02-15 11:31:00,60.0,47.0,30.31,NNW,333,2.0,-999.0,61,-99.99,,,-99.99,,2013-02-15 19:31:00,
2013-02-15 11:41:00,60.0,47.0,30.31,NNW,333,2.0,-999.0,61,-99.99,,,-99.99,,2013-02-15 19:41:00,
2013-02-15 11:52:00,61.0,47.0,30.31,NNW,340,2.0,-999.0,60,-99.99,,,-99.99,,2013-02-15 19:52:00,
2013-02-15 12:01:00,62.0,48.0,30.30,North,5,2.0,-999.0,61,-99.99,,,-99.99,,2013-02-15 20:01:00,
2013-02-15 12:11:00,62.0,48.0,30.30,North,5,2.0,-999.0,61,-99.99,,,-99.99,,2013-02-15 20:11:00,
2013-02-15 12:21:00,62.0,47.0,30.29,ESE,104,2.0,-999.0,59,-99.99,,,-99.99,,2013-02-15 20:21:00,
2013-02-15 12:32:00,63.0,48.0,30.29,ESE,102,1.0,-999.0,57,-99.99,,,-99.99,,2013-02-15 20:32:00,
2013-02-15 12:42:00,63.0,48.0,30.29,ESE,102,1.0,-999.0,57,-99.99,,,-99.99,,2013-02-15 20:42:00,
2013-02-15 12:52:00,65.0,47.0,30.29,East,101,2.0,-999.0,53,-99.99,,,-99.99,,2013-02-15 20:52:00,
2013-02-15 13:01:00,65.0,46.0,30.28,East,101,2.0,-999.0,51,-99.99,,,-99.99,,2013-02-15 21:01:00,
2013-02-15 13:11:00,65.0,46.0,30.28,East,101,2.0,-999.0,51,-99.99,,,-99.99,,2013-02-15 21:11:00,
2013-02-15 13:21:00,66.0,46.0,30.28,ESE,105,1.0,-999.0,49,-99.99,,,-99.99,,2013-02-15 21:21:00,
2013-02-15 13:31:00,66.0,46.0,30.27,ESE,102,2.0,-999.0,49,-99.99,,,-99.99,,2013-02-15 21:31:00,
2013-02-15 13:42:00,66.0,46.0,30.27,ESE,102,2.0,-999.0,49,-99.99,,,-99.99,,2013-02-15 21:42:00,
2013-02-15 13:52:00,66.0,45.0,30.27,ESE,102,1.0,-999.0,46,-99.99,,,-99.99,,2013-02-15 21:52:00,
2013-02-15 14:01:00,67.0,46.0,30.26,ESE,103,3.0,-999.0,46,-99.99,,,-99.99,,2013-02-15 22:01:00,
2013-02-15 14:11:00,67.0,46.0,30.26,ESE,103,3.0,-999.0,46,-99.99,,,-99.99,,2013-02-15 22:11:00,
2013-02-15 14:21:00,68.0,46.0,30.25,ESE,103,1.0,-999.0,46,-99.99,,,-99.99,,2013-02-15 22:21:00,
2013-02-15 14:31:00,68.0,46.0,30.25,ESE,103,2.0,-999.0,45,-99.99,,,-99.99,,2013-02-15 22:31:00,
2013-02-15 14:41:00,68.0,46.0,30.25,ESE,103,2.0,-999.0,45,-99.99,,,-99.99,,2013-02-15 22:41:00,
2013-02-15 14:52:00,69.0,46.0,30.25,NNW,346,2.0,-999.0,43,-99.99,,,-99.99,,2013-02-15 22:52:00,
2013-02-15 15:02:00,69.0,46.0,30.25,NE,44,2.0,-999.0,43,-99.99,,,-99.99,,2013-02-15 23:02:00,
2013-02-15 15:11:00,69.0,46.0,30.25,NE,44,2.0,-999.0,43,-99.99,,,-99.99,,2013-02-15 23:11:00,
2013-02-15 15:21:00,69.0,46.0,30.25,ENE,59,2.0,-999.0,44,-99.99,,,-99.99,,2013-02-15 23:21:00,
2013-02-15 15:31:00,69.0,46.0,30.25,ENE,68,2.0,-999.0,44,-99.99,,,-99.99,,2013-02-15 23:31:00,
2013-02-15 15:41:00,69.0,46.0,30.25,ENE,68,2.0,-999.0,44,-99.99,,,-99.99,,2013-02-15 23:41:00,
2013-02-15 15:52:00,68.0,44.0,30.24,ENE,70,2.0,-999.0,42,-99.99,,,-99.99,,2013-02-15 23:52:00,
2013-02-15 16:01:00,68.0,44.0,30.24,ENE,70,2.0,-999.0,42,-99.99,,,-99.99,,2013-02-16 00:01:00,
2013-02-15 16:11:00,68.0,44.0,30.24,ENE,70,2.0,-999.0,42,-99.99,,,-99.99,,2013-02-16 00:11:00,
2013-02-15 16:21:00,69.0,45.0,30.24,ENE,70,1.0,-999.0,42,-99.99,,,-99.99,,2013-02-16 00:21:00,
2013-02-15 16:31:00,69.0,45.0,30.24,ENE,70,2.0,-999.0,42,-99.99,,,-99.99,,2013-02-16 00:31:00,
2013-02-15 16:42:00,69.0,45.0,30.24,ENE,70,2.0,-999.0,42,-99.99,,,-99.99,,2013-02-16 00:42:00,
2013-02-15 16:52:00,69.0,44.0,30.24,ENE,69,2.0,-999.0,41,-99.99,,,-99.99,,2013-02-16 00:52:00,
2013-02-15 17:02:00,68.0,44.0,30.23,ENE,69,2.0,-999.0,42,-99.99,,,-99.99,,2013-02-16 01:02:00,
2013-02-15 17:11:00,68.0,44.0,30.23,ENE,69,2.0,-999.0,42,-99.99,,,-99.99,,2013-02-16 01:11:00,
2013-02-15 17:21:00,69.0,45.0,30.24,ENE,69,0.0,-999.0,42,-99.99,,,-99.99,,2013-02-16 01:21:00,
2013-02-15 17:31:00,69.0,45.0,30.23,ENE,69,0.0,-999.0,42,-99.99,,,-99.99,,2013-02-16 01:31:00,
2013-02-15 17:41:00,69.0,45.0,30.23,ENE,69,0.0,-999.0,42,-99.99,,,-99.99,,2013-02-16 01:41:00,
2013-02-15 17:52:00,68.0,44.0,30.24,ENE,69,0.0,-999.0,42,-99.99,,,-99.99,,2013-02-16 01:52:00,
2013-02-15 18:01:00,68.0,45.0,30.24,ENE,69,0.0,-999.0,43,-99.99,,,-99.99,,2013-02-16 02:01:00,
2013-02-15 18:11:00,68.0,45.0,30.24,ENE,69,0.0,-999.0,43,-99.99,,,-99.99,,2013-02-16 02:11:00,
2013-02-15 18:21:00,66.0,44.0,30.24,ENE,69,0.0,-999.0,45,-99.99,,,-99.99,,2013-02-16 02:21:00,
2013-02-15 18:31:00,64.0,44.0,30.24,ENE,69,0.0,-999.0,48,-99.99,,,-99.99,,2013-02-16 02:31:00,
2013-02-15 18:42:00,64.0,44.0,30.24,ENE,69,0.0,-999.0,48,-99.99,,,-99.99,,2013-02-16 02:42:00,
2013-02-15 18:52:00,62.0,44.0,30.24,ENE,69,0.0,-999.0,52,-99.99,,,-99.99,,2013-02-16 02:52:00,
2013-02-15 19:01:00,61.0,44.0,30.24,ENE,69,0.0,-999.0,54,-99.99,,,-99.99,,2013-02-16 03:01:00,
2013-02-15 19:11:00,61.0,44.0,30.24,ENE,69,0.0,-999.0,54,-99.99,,,-99.99,,2013-02-16 03:11:00,
2013-02-15 19:21:00,60.0,44.0,30.24,ENE,69,0.0,-999.0,56,-99.99,,,-99.99,,2013-02-16 03:21:00,
2013-02-15 19:31:00,59.0,45.0,30.24,ENE,69,1.0,-999.0,60,-99.99,,,-99.99,,2013-02-16 03:31:00,
2013-02-15 19:41:00,59.0,45.0,30.24,ENE,69,1.0,-999.0,60,-99.99,,,-99.99,,2013-02-16 03:41:00,
2013-02-15 19:52:00,59.0,46.0,30.24,ENE,69,0.0,-999.0,61,-99.99,,,-99.99,,2013-02-16 03:52:00,
2013-02-15 20:01:00,58.0,45.0,30.24,ENE,69,1.0,-999.0,62,-99.99,,,-99.99,,2013-02-16 04:01:00,
2013-02-15 20:11:00,58.0,45.0,30.24,ENE,69,1.0,-999.0,62,-99.99,,,-99.99,,2013-02-16 04:11:00,
2013-02-15 20:21:00,58.0,45.0,30.24,ENE,69,0.0,-999.0,63,-99.99,,,-99.99,,2013-02-16 04:21:00,
2013-02-15 20:31:00,57.0,45.0,30.25,ENE,69,0.0,-999.0,65,-99.99,,,-99.99,,2013-02-16 04:31:00,
2013-02-15 20:41:00,57.0,45.0,30.25,ENE,69,0.0,-999.0,65,-99.99,,,-99.99,,2013-02-16 04:41:00,
2013-02-15 20:52:00,56.0,45.0,30.26,ENE,69,0.0,-999.0,67,-99.99,,,-99.99,,2013-02-16 04:52:00,
2013-02-15 21:01:00,56.0,45.0,30.26,ENE,69,0.0,-999.0,66,-99.99,,,-99.99,,2013-02-16 05:01:00,
2013-02-15 21:11:00,56.0,45.0,30.26,ENE,69,0.0,-999.0,66,-99.99,,,-99.99,,2013-02-16 05:11:00,
2013-02-15 21:21:00,55.0,44.0,30.26,ENE,69,0.0,-999.0,67,-99.99,,,-99.99,,2013-02-16 05:21:00,
2013-02-15 21:31:00,53.0,43.0,30.26,ENE,69,0.0,-999.0,69,-99.99,,,-99.99,,2013-02-16 05:31:00,
2013-02-15 21:42:00,53.0,43.0,30.26,ENE,69,0.0,-999.0,69,-99.99,,,-99.99,,2013-02-16 05:42:00,
2013-02-15 21:52:00,53.0,45.0,30.26,ENE,69,0.0,-999.0,74,-99.99,,,-99.99,,2013-02-16 05:52:00,
2013-02-15 22:01:00,53.0,45.0,30.27,ENE,69,0.0,-999.0,74,-99.99,,,-99.99,,2013-02-16 06:01:00,
2013-02-15 22:11:00,53.0,45.0,30.27,ENE,69,0.0,-999.0,74,-99.99,,,-99.99,,2013-02-16 06:11:00,
2013-02-15 22:21:00,52.0,44.0,30.26,ENE,69,1.0,-999.0,73,-99.99,,,-99.99,,2013-02-16 06:21:00,
2013-02-15 22:32:00,52.0,44.0,30.26,ENE,69,1.0,-999.0,74,-99.99,,,-99.99,,2013-02-16 06:32:00,
2013-02-15 22:41:00,52.0,44.0,30.26,ENE,69,1.0,-999.0,74,-99.99,,,-99.99,,2013-02-16 06:41:00,
2013-02-15 22:52:00,52.0,44.0,30.26,ENE,69,1.0,-999.0,74,-99.99,,,-99.99,,2013-02-16 06:52:00,
2013-02-15 23:02:00,51.0,43.0,30.26,ENE,69,1.0,-999.0,73,-99.99,,,-99.99,,2013-02-16 07:02:00,
2013-02-15 23:11:00,51.0,43.0,30.26,ENE,69,1.0,-999.0,73,-99.99,,,-99.99,,2013-02-16 07:11:00,
2013-02-15 23:21:00,50.0,41.0,30.27,ENE,69,1.0,-999.0,71,-99.99,,,-99.99,,2013-02-16 07:21:00,
2013-02-15 23:31:00,50.0,41.0,30.27,ENE,69,0.0,-999.0,70,-99.99,,,-99.99,,2013-02-16 07:31:00,
2013-02-15 23:41:00,50.0,41.0,30.27,ENE,69,0.0,-999.0,70,-99.99,,,-99.99,,2013-02-16 07:41:00,
2013-02-15 23:53:00,50.0,41.0,30.27,ENE,69,0.0,-999.0,72,-99.99,,,-99.99,,2013-02-16 07:53:00,